星链-37633(STARLINK-37633)

导读

STARLINK-37633(NORAD编号69133)是美国太空探索技术公司(SpaceX)开发部署的星链(Starlink)星座中的一颗低轨互联网通信卫星,属于星链卫星互联网项目的组网卫星,运行在近地轨道,旨在为全球提供低成本、高性能的太空互联网接入服务。 该卫星属于星链最新批次组网卫星,延续了星链卫星的标准化设计,目前处于在轨运行状态,其轨道参数稳定,参与星链星座全球网络覆盖的组网工作,星链项目通过不断发射这类卫星完成全球低轨通信网络的部署。

Basic Information
目录编号:
69133
目录名称:
STARLINK-37633
国际标识:
2026-110K
轨道中心:
EARTH
卫星名称:
星链-37633
卫星全名:
星链-37633(STARLINK-37633)
卫星状态:
在轨 (已飞行107 天)
发射日期:
2026-05-20 UTC
国别 :
美国 (US)
星等 :
--
Orbit Information
数据来源 国际轨道数据 AOE轨道数据
星历时间 2026-09-03T14:17:55+0800
21小时前
查看轨道信息
2026-09-03T23:00:00+0800
13小时前
查看轨道信息
半长轴 6843.676km 6843.735km
偏心率 0.0001345 0.0001321
轨道倾角 97.287° 97.286°
近地点辐角 95.168° 105.009°
升交点赤经 81.552° 81.909°
平近点角 264.972° 95.279°
近地点 464.618km 464.693km
远地点 466.46km 466.503km
周期 93.906分钟 93.907分钟
每日圈数 15.334465 15.334269
Detailed Information
固有亮度:
5
最大亮度:
2.5
卫星平台:
Starlink V1.0
覆盖范围:
全球
运营商:
太空探索技术公司
运营商所在国:
美国
制造商(研发单位):
太空探索技术公司
制造商所在国:
美国
使用方式:
暂无
Satellite Introduction
Starlink 计划是 SpaceX 推出的全球卫星互联网项目,通过发射低轨道卫星,为全球尤其是偏远地区提供高速、低延迟的互联网服务。自 2019 年起,Starlink 已部署数千颗卫星,旨在缩小全球数字鸿沟,推动互联网普及。该项目还为军事、航空等行业提供通信支持,带来广泛经济效益。
2D Orbit Map
3D Orbit Map
Orbit Altitude Analysis Chart
Orbit Inclination Analysis Chart
Orbit Comprehensive Analysis Chart
View Comprehensive Chart
Conjunction Data List
Event ID Objects TCA Miss Dist (km) Collision Risk Probability Collision Risk Index (CRI) Action
CDM_260904-095505-476106-913321
2026-09-04T
09:55:05+0000
2.692 km
极远距离
1.475585E-6 低风险 0.38
CDM_260904-174405-341506-913321
2026-09-04T
17:44:36+0000
2.443 km
极远距离
1.372922E-6 低风险 0.38